DLH242 EDDS-LGIR

Flight info

Callsign DLH242
Flight time N/A
Altitude 35000
Route ABTAL4B ABTAL L173 RIXED Y161 MAH L173 OTT M867 VAVOR DCT RADIZ DCT ZARVE/N0446F370 DCT TUPUS DCT ELTIB DCT RETRA DCT PINDO UL607 NETIS/N0407F230 L607 GIVIS T514 XAVIS
Aircraft A320/M-SDE3FGHIRWY/LB1

Departure

Time 2026-05-08 06:10
Airport Stuttgart Airport (EDDS)

Arrival

Time N/A
Airport Heraklion International Nikos Kazantzakis Airport (LGIR)
Time Latitude Longitude Altitude Speed Heading
2026-05-08 06:00 48.68858 9.19294 1285 ft 0 kts 344°
2026-05-08 06:04 48.68847 9.19299 1285 ft 3 kts 344°
2026-05-08 06:05 48.68830 9.19306 1286 ft 3 kts 344°
2026-05-08 06:05 48.68814 9.19314 1289 ft 2 kts
2026-05-08 06:05 48.68799 9.19304 1285 ft 1 kts 69°
2026-05-08 06:06 48.68805 9.19332 1287 ft 8 kts 74°
2026-05-08 06:06 48.68823 9.19450 1285 ft 12 kts 77°
2026-05-08 06:06 48.68843 9.19563 1285 ft 10 kts 73°
2026-05-08 06:06 48.68860 9.19653 1285 ft 8 kts 73°
2026-05-08 06:07 48.68878 9.19753 1285 ft 15 kts 75°
2026-05-08 06:07 48.68856 9.19883 1285 ft 13 kts 148°
2026-05-08 06:07 48.68777 9.19937 1287 ft 12 kts 158°
2026-05-08 06:07 48.68708 9.19973 1285 ft 9 kts 161°
2026-05-08 06:08 48.68653 9.20000 1285 ft 7 kts 163°
2026-05-08 06:08 48.68601 9.20022 1289 ft 10 kts 163°
2026-05-08 06:08 48.68594 9.20123 1286 ft 9 kts 75°
2026-05-08 06:08 48.68595 9.20127 1286 ft 0 kts 75°
2026-05-08 06:09 48.68636 9.20343 1287 ft 58 kts 74°
2026-05-08 06:09 48.68811 9.21274 1286 ft 123 kts 74°
2026-05-08 06:09 48.69095 9.22788 1305 ft 172 kts 75°
2026-05-08 06:10 48.69393 9.24606 1850 ft 179 kts 75°
2026-05-08 06:10 48.69714 9.26416 2623 ft 180 kts 73°
2026-05-08 06:10 48.70077 9.28334 3082 ft 201 kts 73°
2026-05-08 06:10 48.70488 9.30475 3358 ft 224 kts 73°
2026-05-08 06:11 48.70948 9.32851 3636 ft 247 kts 74°
2026-05-08 06:11 48.71447 9.35422 4177 ft 260 kts 73°
2026-05-08 06:11 48.71961 9.38073 4931 ft 264 kts 74°
2026-05-08 06:11 48.72475 9.40758 5666 ft 268 kts 74°
2026-05-08 06:12 48.72996 9.43488 6422 ft 272 kts 74°
2026-05-08 06:12 48.73529 9.46261 7150 ft 276 kts 74°
2026-05-08 06:12 48.74167 9.49020 7869 ft 280 kts 64°
2026-05-08 06:12 48.75227 9.51513 8550 ft 285 kts 50°
2026-05-08 06:13 48.76506 9.53831 9236 ft 289 kts 50°
2026-05-08 06:13 48.77807 9.56191 9912 ft 294 kts 50°
2026-05-08 06:13 48.79136 9.58611 10338 ft 309 kts 50°
2026-05-08 06:13 48.80560 9.61216 10511 ft 332 kts 50°
2026-05-08 06:14 48.82066 9.63974 10642 ft 355 kts 50°
2026-05-08 06:14 48.83669 9.66916 11094 ft 366 kts 50°
2026-05-08 06:14 48.85297 9.69914 11713 ft 371 kts 50°
2026-05-08 06:14 48.86950 9.72965 12326 ft 376 kts 49°
2026-05-08 06:15 48.88623 9.76054 12946 ft 380 kts 49°
2026-05-08 06:15 48.90307 9.79165 13583 ft 383 kts 49°
2026-05-08 06:15 48.92012 9.82319 14193 ft 387 kts 49°
2026-05-08 06:15 48.93727 9.85493 14804 ft 390 kts 49°
2026-05-08 06:16 48.95455 9.88693 15413 ft 392 kts 50°
2026-05-08 06:16 48.97193 9.91917 15996 ft 395 kts 49°
2026-05-08 06:16 48.98942 9.95163 16566 ft 398 kts 50°
2026-05-08 06:16 49.00705 9.98443 17124 ft 401 kts 50°
2026-05-08 06:17 49.04258 10.05074 18209 ft 407 kts 50°
2026-05-08 06:17 49.06057 10.08430 18722 ft 410 kts 50°
2026-05-08 06:17 49.07870 10.11811 19224 ft 414 kts 50°
2026-05-08 06:18 49.09528 10.15407 19700 ft 418 kts 64°
2026-05-08 06:18 49.10287 10.19690 20136 ft 422 kts 87°
2026-05-08 06:18 49.09934 10.24056 20566 ft 423 kts 110°
2026-05-08 06:18 49.08510 10.27958 20969 ft 422 kts 133°
2026-05-08 06:19 49.06242 10.30715 21363 ft 418 kts 156°
2026-05-08 06:19 49.03471 10.31932 21736 ft 414 kts 179°
2026-05-08 06:19 49.00644 10.31426 22099 ft 410 kts 202°
2026-05-08 06:19 48.98164 10.29379 22482 ft 407 kts 217°
2026-05-08 06:20 48.95832 10.26882 22868 ft 410 kts 217°
2026-05-08 06:20 48.93488 10.24398 23254 ft 414 kts 211°
2026-05-08 06:20 48.90774 10.22878 23611 ft 422 kts 191°
2026-05-08 06:20 48.87822 10.22910 23950 ft 431 kts 171°
2026-05-08 06:21 48.84991 10.24467 24277 ft 440 kts 150°
2026-05-08 06:21 48.82674 10.27527 24588 ft 448 kts 129°
2026-05-08 06:21 48.81206 10.31722 24896 ft 455 kts 107°
2026-05-08 06:21 48.80762 10.36475 25191 ft 459 kts 91°
2026-05-08 06:22 48.80810 10.41332 25474 ft 462 kts 90°
2026-05-08 06:22 48.80417 10.46146 25753 ft 461 kts 109°
2026-05-08 06:22 48.78971 10.50451 26020 ft 459 kts 129°
2026-05-08 06:22 48.76849 10.54038 26296 ft 458 kts 139°
2026-05-08 06:23 48.74448 10.57210 26571 ft 458 kts 143°
2026-05-08 06:23 48.71965 10.60264 26865 ft 460 kts 143°
2026-05-08 06:23 48.69519 10.63404 27124 ft 463 kts 141°
2026-05-08 06:23 48.67156 10.66727 27387 ft 466 kts 138°
2026-05-08 06:24 48.64874 10.70227 27649 ft 468 kts 136°
2026-05-08 06:24 48.62651 10.73841 27886 ft 470 kts 135°
2026-05-08 06:24 48.60451 10.77506 28115 ft 472 kts 135°
2026-05-08 06:24 48.58235 10.81188 28340 ft 474 kts 135°
2026-05-08 06:25 48.56019 10.84824 28566 ft 476 kts 136°
2026-05-08 06:25 48.53757 10.88476 28784 ft 477 kts 136°
2026-05-08 06:25 48.51473 10.92117 28998 ft 477 kts 136°
2026-05-08 06:25 48.49189 10.95739 29283 ft 477 kts 136°
2026-05-08 06:26 48.46897 10.99345 29543 ft 476 kts 137°
2026-05-08 06:26 48.44597 11.02927 29810 ft 476 kts 137°
2026-05-08 06:26 48.42292 11.06500 30080 ft 475 kts 137°
2026-05-08 06:26 48.39986 11.10069 30344 ft 475 kts 137°
2026-05-08 06:27 48.37685 11.13629 30598 ft 474 kts 137°
2026-05-08 06:27 48.35387 11.17190 30866 ft 474 kts 137°
2026-05-08 06:27 48.33097 11.20737 31122 ft 473 kts 137°
2026-05-08 06:27 48.30807 11.24287 31379 ft 473 kts 137°
2026-05-08 06:28 48.28643 11.28020 31627 ft 475 kts 129°
2026-05-08 06:28 48.26860 11.32218 31861 ft 479 kts 120°
2026-05-08 06:28 48.25520 11.36810 32075 ft 482 kts 110°
2026-05-08 06:28 48.24640 11.41682 32299 ft 484 kts 105°
2026-05-08 06:29 48.23859 11.46589 32499 ft 484 kts 105°
2026-05-08 06:29 48.23059 11.51505 32687 ft 485 kts 106°
2026-05-08 06:29 48.22248 11.56407 32900 ft 484 kts 106°
2026-05-08 06:29 48.21434 11.61302 33111 ft 484 kts 106°
2026-05-08 06:30 48.20615 11.66205 33301 ft 484 kts 106°
2026-05-08 06:30 48.19798 11.71101 33483 ft 485 kts 106°
2026-05-08 06:30 48.18819 11.75906 33668 ft 481 kts 115°
2026-05-08 06:30 48.17378 11.80415 33865 ft 477 kts 124°
2026-05-08 06:31 48.15531 11.84499 34054 ft 472 kts 133°
2026-05-08 06:31 48.13336 11.88105 34230 ft 467 kts 142°
2026-05-08 06:31 48.10950 11.91389 34409 ft 466 kts 142°
2026-05-08 06:31 48.08563 11.94662 34599 ft 466 kts 142°
2026-05-08 06:32 48.06178 11.97941 34773 ft 466 kts 142°
2026-05-08 06:32 48.03793 12.01224 34969 ft 466 kts 141°
2026-05-08 06:32 48.01404 12.04508 35086 ft 467 kts 142°
2026-05-08 06:32 47.99049 12.07738 35111 ft 466 kts 142°
2026-05-08 06:33 47.94267 12.14286 35110 ft 466 kts 142°
2026-05-08 06:33 47.89421 12.20679 35111 ft 465 kts 144°
2026-05-08 06:34 47.84440 12.26823 35110 ft 465 kts 145°
2026-05-08 06:34 47.79448 12.32934 35113 ft 465 kts 144°
2026-05-08 06:35 47.74490 12.39103 35116 ft 465 kts 144°
2026-05-08 06:35 47.69537 12.45286 35121 ft 465 kts 144°
2026-05-08 06:36 47.64571 12.51458 35125 ft 465 kts 144°
2026-05-08 06:36 47.59682 12.57763 35126 ft 468 kts 141°
2026-05-08 06:37 47.55051 12.64560 35128 ft 469 kts 139°
2026-05-08 06:37 47.50511 12.71430 35131 ft 469 kts 139°
2026-05-08 06:38 47.45923 12.78175 35088 ft 466 kts 140°
2026-05-08 06:38 47.42041 12.83749 35117 ft 468 kts 141°
2026-05-08 06:39 47.37358 12.90432 35119 ft 468 kts 141°
2026-05-08 06:39 47.32684 12.97113 35118 ft 468 kts 141°
2026-05-08 06:40 47.28002 13.03809 35119 ft 469 kts 141°
2026-05-08 06:40 47.23345 13.10459 35122 ft 469 kts 141°
2026-05-08 06:41 47.18654 13.17148 35126 ft 470 kts 141°
2026-05-08 06:41 47.13957 13.23818 35126 ft 469 kts 141°
2026-05-08 06:42 47.09257 13.30472 35122 ft 469 kts 141°
2026-05-08 06:42 47.04552 13.37121 35118 ft 470 kts 141°
2026-05-08 06:43 46.99844 13.43760 35114 ft 469 kts 141°
2026-05-08 06:43 46.95118 13.50383 35125 ft 471 kts 141°
2026-05-08 06:44 46.90393 13.57002 35128 ft 470 kts 141°
2026-05-08 06:44 46.85673 13.63615 35132 ft 470 kts 141°
2026-05-08 06:45 46.80977 13.70169 35133 ft 470 kts 141°
2026-05-08 06:45 46.76238 13.76755 35133 ft 470 kts 142°
2026-05-08 06:46 46.71499 13.83327 35136 ft 470 kts 142°
2026-05-08 06:46 46.66754 13.89893 35138 ft 470 kts 142°
2026-05-08 06:47 46.62013 13.96448 35141 ft 470 kts 142°
2026-05-08 06:47 46.57264 14.02972 35143 ft 470 kts 142°
2026-05-08 06:48 46.52511 14.09495 35135 ft 470 kts 142°
2026-05-08 06:48 46.47753 14.16012 35130 ft 470 kts 142°
2026-05-08 06:49 46.42996 14.22520 35134 ft 470 kts 142°
2026-05-08 06:49 46.38230 14.29018 35122 ft 470 kts 142°
2026-05-08 06:50 46.33458 14.35498 35129 ft 471 kts 142°
2026-05-08 06:50 46.28682 14.41970 35125 ft 470 kts 142°
2026-05-08 06:51 46.23909 14.48434 35119 ft 470 kts 142°
2026-05-08 06:51 46.19132 14.54882 35117 ft 470 kts 142°
2026-05-08 06:52 46.14351 14.61307 35114 ft 470 kts 142°
2026-05-08 06:52 46.09568 14.67731 35109 ft 470 kts 142°
2026-05-08 06:53 46.04780 14.74155 35105 ft 470 kts 142°
2026-05-08 06:53 45.99979 14.80570 35102 ft 470 kts 143°
2026-05-08 06:54 45.95182 14.86952 35108 ft 470 kts 143°
2026-05-08 06:54 45.90422 14.93283 35113 ft 469 kts 143°
2026-05-08 06:55 45.85652 14.99778 35107 ft 470 kts 141°
2026-05-08 06:55 45.81052 15.06387 35107 ft 471 kts 140°
2026-05-08 06:56 45.76439 15.13057 35105 ft 471 kts 140°
2026-05-08 06:56 45.71800 15.19658 35104 ft 470 kts 141°
2026-05-08 06:57 45.67133 15.26218 35104 ft 470 kts 141°
2026-05-08 06:57 45.62462 15.32777 35094 ft 470 kts 141°
2026-05-08 06:58 45.57790 15.39337 35097 ft 472 kts 141°
2026-05-08 06:58 45.53108 15.45908 35096 ft 472 kts 141°
2026-05-08 06:59 45.48431 15.52451 35096 ft 471 kts 141°
2026-05-08 06:59 45.43747 15.58984 35095 ft 471 kts 141°
2026-05-08 07:00 45.39059 15.65502 35081 ft 471 kts 141°
2026-05-08 07:00 45.34370 15.71998 35085 ft 471 kts 141°
2026-05-08 07:01 45.29681 15.78483 35095 ft 470 kts 141°
2026-05-08 07:01 45.25024 15.84912 35096 ft 470 kts 141°
2026-05-08 07:02 45.20142 15.90997 35098 ft 463 kts 150°
2026-05-08 07:02 45.14928 15.96351 35102 ft 463 kts 150°
2026-05-08 07:03 45.09711 16.01691 35105 ft 463 kts 150°
2026-05-08 07:03 45.04489 16.07036 35100 ft 463 kts 150°
2026-05-08 07:04 44.99267 16.12371 35094 ft 463 kts 150°
2026-05-08 07:04 44.94045 16.17694 35096 ft 463 kts 150°
2026-05-08 07:05 44.88820 16.22997 35093 ft 463 kts 150°
2026-05-08 07:05 44.83596 16.28292 35099 ft 463 kts 150°
2026-05-08 07:06 44.78368 16.33583 35098 ft 462 kts 150°
2026-05-08 07:06 44.73146 16.38855 35100 ft 462 kts 150°
2026-05-08 07:07 44.67927 16.44122 35100 ft 462 kts 149°
2026-05-08 07:07 44.62708 16.49374 35100 ft 461 kts 150°
2026-05-08 07:08 44.57488 16.54613 35102 ft 461 kts 150°
2026-05-08 07:08 44.52262 16.59832 35099 ft 461 kts 150°
2026-05-08 07:09 44.47036 16.65051 35098 ft 461 kts 150°
2026-05-08 07:09 44.41812 16.70268 35095 ft 461 kts 150°
2026-05-08 07:10 44.36584 16.75471 35087 ft 461 kts 150°
2026-05-08 07:10 44.31354 16.80656 35087 ft 461 kts 149°
2026-05-08 07:11 44.26473 16.86574 35081 ft 466 kts 142°
2026-05-08 07:11 44.21678 16.92672 35073 ft 466 kts 143°
2026-05-08 07:12 44.16879 16.98751 35077 ft 466 kts 143°
2026-05-08 07:12 44.12108 17.04780 35072 ft 466 kts 143°
2026-05-08 07:13 44.07298 17.10845 35064 ft 467 kts 143°
2026-05-08 07:13 44.02469 17.16907 35060 ft 468 kts 143°
2026-05-08 07:14 43.97638 17.22964 35072 ft 468 kts 142°
2026-05-08 07:14 43.92812 17.29016 35083 ft 467 kts 142°
2026-05-08 07:15 43.87993 17.35052 35077 ft 467 kts 143°
2026-05-08 07:15 43.83164 17.41069 35076 ft 467 kts 143°
2026-05-08 07:16 43.78327 17.47074 35081 ft 467 kts 143°
2026-05-08 07:16 43.73489 17.53070 35087 ft 467 kts 143°
2026-05-08 07:17 43.68643 17.59063 35082 ft 467 kts 143°
2026-05-08 07:17 43.63827 17.65004 35087 ft 467 kts 143°
2026-05-08 07:18 43.58985 17.70980 35079 ft 467 kts 143°
2026-05-08 07:18 43.54104 17.76986 35080 ft 467 kts 143°
2026-05-08 07:19 43.49286 17.82907 35081 ft 468 kts 143°
2026-05-08 07:19 43.44430 17.88859 35079 ft 467 kts 143°
2026-05-08 07:20 43.39571 17.94774 35081 ft 466 kts 143°
2026-05-08 07:20 43.34725 18.00667 35079 ft 465 kts 143°
2026-05-08 07:21 43.29881 18.06563 35077 ft 465 kts 143°
2026-05-08 07:21 43.25034 18.12448 35067 ft 464 kts 143°
2026-05-08 07:22 43.20189 18.18305 35073 ft 464 kts 143°
2026-05-08 07:22 43.15348 18.24153 35074 ft 464 kts 143°
2026-05-08 07:23 43.10511 18.29988 35074 ft 463 kts 143°
2026-05-08 07:23 43.05678 18.35805 35071 ft 462 kts 143°
2026-05-08 07:24 43.00858 18.41589 35065 ft 461 kts 143°
2026-05-08 07:24 42.96036 18.47361 35062 ft 460 kts 143°
2026-05-08 07:25 42.92037 18.52141 35058 ft 459 kts 143°
2026-05-08 07:26 42.84826 18.60722 35048 ft 459 kts 143°
2026-05-08 07:26 42.80021 18.66440 35045 ft 458 kts 143°
2026-05-08 07:27 42.75218 18.72137 35042 ft 458 kts 143°
2026-05-08 07:27 42.70416 18.77813 35040 ft 458 kts 143°
2026-05-08 07:28 42.65608 18.83495 35034 ft 457 kts 143°
2026-05-08 07:28 42.60836 18.89123 35032 ft 457 kts 143°
2026-05-08 07:29 42.56007 18.94812 35026 ft 457 kts 143°
2026-05-08 07:29 42.51202 19.00452 35024 ft 457 kts 143°
2026-05-08 07:30 42.46424 19.06041 35018 ft 457 kts 143°
2026-05-08 07:30 42.41610 19.11656 35016 ft 457 kts 143°
2026-05-08 07:31 42.36793 19.17271 35017 ft 458 kts 143°
2026-05-08 07:31 42.31968 19.22891 35018 ft 458 kts 143°
2026-05-08 07:32 42.27127 19.28518 35019 ft 459 kts 143°
2026-05-08 07:32 42.22245 19.34055 35017 ft 456 kts 149°
2026-05-08 07:33 42.17076 19.39014 35022 ft 456 kts 149°
2026-05-08 07:33 42.11897 19.43973 35025 ft 457 kts 149°
2026-05-08 07:34 42.06739 19.48888 35029 ft 457 kts 149°
2026-05-08 07:34 42.01550 19.53833 35032 ft 457 kts 149°
2026-05-08 07:35 41.96355 19.58757 35034 ft 457 kts 149°
2026-05-08 07:35 41.91149 19.63698 35034 ft 458 kts 149°
2026-05-08 07:36 41.85952 19.68619 35037 ft 458 kts 149°
2026-05-08 07:36 41.80736 19.73545 35038 ft 458 kts 149°
2026-05-08 07:37 41.75520 19.78462 35036 ft 458 kts 149°
2026-05-08 07:37 41.70305 19.83360 35042 ft 458 kts 149°
2026-05-08 07:38 41.65087 19.88255 35043 ft 458 kts 149°
2026-05-08 07:38 41.59869 19.93149 35042 ft 458 kts 149°
2026-05-08 07:39 41.54681 19.98002 35044 ft 458 kts 150°
2026-05-08 07:39 41.49462 20.02871 35040 ft 458 kts 150°
2026-05-08 07:40 41.44193 20.07782 35040 ft 459 kts 150°
2026-05-08 07:40 41.38977 20.12625 35043 ft 460 kts 150°
2026-05-08 07:41 41.33727 20.17500 35039 ft 460 kts 150°
2026-05-08 07:41 41.28464 20.22369 35043 ft 461 kts 151°
2026-05-08 07:42 41.23189 20.27232 35044 ft 461 kts 151°
2026-05-08 07:42 41.17914 20.32092 35053 ft 463 kts 151°
2026-05-08 07:43 41.12625 20.36963 35060 ft 463 kts 151°
2026-05-08 07:43 41.07331 20.41824 35075 ft 464 kts 152°
2026-05-08 07:44 41.02026 20.46694 35088 ft 464 kts 152°
2026-05-08 07:44 40.96708 20.51559 35097 ft 465 kts 152°
2026-05-08 07:45 40.91378 20.56419 35102 ft 465 kts 152°
2026-05-08 07:45 40.86052 20.61274 35099 ft 465 kts 152°
2026-05-08 07:46 40.80726 20.66124 35100 ft 465 kts 152°
2026-05-08 07:46 40.75392 20.70962 35102 ft 466 kts 153°
2026-05-08 07:47 40.70045 20.75798 35103 ft 466 kts 153°
2026-05-08 07:47 40.64696 20.80634 35101 ft 466 kts 153°
2026-05-08 07:48 40.59341 20.85459 35107 ft 466 kts 153°
2026-05-08 07:48 40.53992 20.90269 35112 ft 466 kts 153°
2026-05-08 07:49 40.48639 20.95091 35119 ft 468 kts 150°
2026-05-08 07:49 40.43635 21.00701 35114 ft 474 kts 146°
2026-05-08 07:50 40.38711 21.06386 35116 ft 475 kts 146°
2026-05-08 07:50 40.33748 21.12114 35115 ft 475 kts 146°
2026-05-08 07:51 40.28768 21.17842 35124 ft 476 kts 146°
2026-05-08 07:51 40.23776 21.23552 35130 ft 477 kts 146°
2026-05-08 07:52 40.18771 21.29263 35128 ft 477 kts 146°
2026-05-08 07:52 40.13771 21.34983 35128 ft 478 kts 146°
2026-05-08 07:53 40.08756 21.40718 35135 ft 479 kts 146°
2026-05-08 07:53 40.03725 21.46433 35138 ft 480 kts 147°
2026-05-08 07:54 39.98686 21.52138 35136 ft 480 kts 147°
2026-05-08 07:54 39.93631 21.57854 35133 ft 482 kts 147°
2026-05-08 07:55 39.88556 21.63585 35132 ft 483 kts 147°
2026-05-08 07:55 39.83476 21.69325 35134 ft 484 kts 147°
2026-05-08 07:56 39.78420 21.75027 35138 ft 484 kts 147°
2026-05-08 07:56 39.73319 21.80749 35136 ft 484 kts 147°
2026-05-08 07:57 39.68219 21.86476 35137 ft 484 kts 147°
2026-05-08 07:57 39.63115 21.92192 35138 ft 485 kts 147°
2026-05-08 07:58 39.58002 21.97891 35134 ft 485 kts 147°
2026-05-08 07:58 39.52878 22.03577 35131 ft 485 kts 147°
2026-05-08 07:59 39.47750 22.09269 35122 ft 486 kts 147°
2026-05-08 07:59 39.42613 22.14979 35114 ft 487 kts 147°
2026-05-08 08:00 39.37471 22.20679 35108 ft 487 kts 147°
2026-05-08 08:00 39.32310 22.26374 35102 ft 488 kts 147°
2026-05-08 08:01 39.27143 22.32071 35099 ft 489 kts 147°
2026-05-08 08:01 39.21964 22.37780 35090 ft 490 kts 147°
2026-05-08 08:02 39.16772 22.43479 35096 ft 491 kts 147°
2026-05-08 08:02 39.11553 22.49192 35099 ft 492 kts 147°
2026-05-08 08:03 39.06362 22.54870 35096 ft 494 kts 147°
2026-05-08 08:03 39.01128 22.60590 35083 ft 494 kts 147°
2026-05-08 08:04 38.95884 22.66301 35094 ft 494 kts 147°
2026-05-08 08:04 38.90636 22.72012 35098 ft 495 kts 147°
2026-05-08 08:05 38.85382 22.77726 35098 ft 495 kts 147°
2026-05-08 08:05 38.80102 22.83431 35098 ft 496 kts 147°
2026-05-08 08:06 38.74813 22.89138 35101 ft 497 kts 147°
2026-05-08 08:06 38.69519 22.94849 35096 ft 498 kts 147°
2026-05-08 08:07 38.64218 23.00560 35081 ft 498 kts 147°
2026-05-08 08:07 38.58910 23.06258 35099 ft 499 kts 147°
2026-05-08 08:08 38.53586 23.11958 35100 ft 500 kts 147°
2026-05-08 08:08 38.48252 23.17670 35106 ft 500 kts 147°
2026-05-08 08:09 38.42904 23.23390 35110 ft 502 kts 147°
2026-05-08 08:09 38.37544 23.29098 35121 ft 502 kts 147°
2026-05-08 08:10 38.32209 23.34763 35125 ft 502 kts 147°
2026-05-08 08:10 38.27712 23.39538 35133 ft 503 kts 147°
2026-05-08 08:11 38.21451 23.46170 35135 ft 504 kts 147°
2026-05-08 08:11 38.16931 23.50955 35137 ft 505 kts 147°
2026-05-08 08:12 38.11520 23.56661 35140 ft 506 kts 147°
2026-05-08 08:12 38.06088 23.62385 35148 ft 508 kts 147°
2026-05-08 08:13 38.00643 23.68115 35148 ft 509 kts 147°
2026-05-08 08:13 37.95188 23.73839 35147 ft 510 kts 147°
2026-05-08 08:14 37.89733 23.79590 35157 ft 512 kts 143°
2026-05-08 08:14 37.84928 23.86354 35155 ft 519 kts 135°
2026-05-08 08:15 37.80278 23.93341 35165 ft 519 kts 135°
2026-05-08 08:15 37.75619 24.00311 35168 ft 519 kts 135°
2026-05-08 08:16 37.70948 24.07264 35161 ft 520 kts 135°
2026-05-08 08:16 37.66267 24.14225 35157 ft 519 kts 135°
2026-05-08 08:17 37.61597 24.21162 35166 ft 519 kts 135°
2026-05-08 08:17 37.56852 24.28008 35158 ft 516 kts 141°
2026-05-08 08:18 37.51252 24.33400 35160 ft 502 kts 155°
2026-05-08 08:18 37.45351 24.38025 35163 ft 503 kts 155°
2026-05-08 08:19 37.39396 24.42692 35170 ft 504 kts 155°
2026-05-08 08:19 37.33442 24.47360 35174 ft 505 kts 155°